TimeMST,TemperatureF,Dew PointF,Humidity,Sea Level PressureIn,VisibilityMPH,Wind Direction,Wind SpeedMPH,Gust SpeedMPH,PrecipitationIn,Events,Conditions,WindDirDegrees,DateUTC
12:53 AM,-7.1,-11.9,79,30.37,4.0,Calm,Calm,-,N/A,,Haze,0,2013-12-07 07:53:00
1:53 AM,-9.9,-14.1,82,30.38,5.0,Calm,Calm,-,N/A,,Overcast,0,2013-12-07 08:53:00
2:53 AM,-11.0,-15.0,83,30.38,8.0,Calm,Calm,-,N/A,,Mostly Cloudy,0,2013-12-07 09:53:00
3:06 AM,-9.9,-14.1,82,30.01,7.0,Calm,Calm,-,N/A,,Scattered Clouds,0,2013-12-07 10:06:00
3:53 AM,-11.0,-14.1,86,30.37,7.0,NW,3.5,-,N/A,,Clear,320,2013-12-07 10:53:00
4:53 AM,-11.9,-16.1,82,30.36,8.0,Calm,Calm,-,N/A,,Clear,0,2013-12-07 11:53:00
5:53 AM,-13.0,-17.0,82,30.36,10.0,WNW,3.5,-,N/A,,Clear,290,2013-12-07 12:53:00
6:53 AM,-13.0,-18.0,78,30.35,10.0,Calm,Calm,-,N/A,,Clear,0,2013-12-07 13:53:00
7:50 AM,-14.8,-18.4,84,29.94,7.0,WSW,5.8,-,N/A,,Scattered Clouds,250,2013-12-07 14:50:00
7:53 AM,-14.1,-18.0,82,30.35,6.0,West,5.8,-,N/A,,Mostly Cloudy,260,2013-12-07 14:53:00
8:00 AM,-14.1,-18.0,82,29.93,6.0,West,5.8,-,N/A,,Mostly Cloudy,260,2013-12-07 15:00:00
8:53 AM,-11.9,-15.0,86,30.35,5.0,West,4.6,-,N/A,,Overcast,260,2013-12-07 15:53:00
9:27 AM,-14.1,-17.0,87,29.93,2.5,Calm,Calm,-,N/A,,Overcast,0,2013-12-07 16:27:00
9:36 AM,-14.1,-16.1,91,29.93,5.0,ESE,3.5,-,N/A,,Overcast,120,2013-12-07 16:36:00
9:53 AM,-11.9,-14.1,90,30.33,4.0,East,3.5,-,N/A,,Overcast,100,2013-12-07 16:53:00
10:15 AM,-9.9,-13.0,86,29.91,5.0,Calm,Calm,-,N/A,,Scattered Clouds,0,2013-12-07 17:15:00
10:53 AM,-7.1,-11.0,83,30.28,8.0,Calm,Calm,-,N/A,,Clear,0,2013-12-07 17:53:00
11:13 AM,-6.0,-11.0,79,29.88,7.0,East,3.5,-,N/A,,Mostly Cloudy,90,2013-12-07 18:13:00
11:53 AM,-5.1,-9.9,80,30.24,2.5,SE,3.5,-,N/A,,Haze,130,2013-12-07 18:53:00
12:04 PM,-5.1,-9.9,80,29.85,3.0,SE,3.5,-,N/A,,Haze,130,2013-12-07 19:04:00
12:53 PM,-2.9,-9.0,75,30.18,5.0,East,3.5,-,N/A,,Haze,100,2013-12-07 19:53:00
1:48 PM,-2.2,-9.4,71,29.78,7.0,Calm,Calm,-,N/A,,Mostly Cloudy,0,2013-12-07 20:48:00
1:53 PM,-2.9,-9.0,75,30.14,8.0,Calm,Calm,-,N/A,,Scattered Clouds,0,2013-12-07 20:53:00
2:53 PM,-2.0,-9.0,72,30.12,9.0,Calm,Calm,-,N/A,,Clear,0,2013-12-07 21:53:00
3:53 PM,-2.9,-9.0,75,30.12,9.0,Calm,Calm,-,N/A,,Mostly Cloudy,0,2013-12-07 22:53:00
4:53 PM,-2.9,-9.0,75,30.13,9.0,ESE,3.5,-,N/A,,Overcast,120,2013-12-07 23:53:00
5:53 PM,-4.0,-9.0,79,30.13,10.0,Calm,Calm,-,N/A,,Clear,0,2013-12-08 00:53:00
6:53 PM,-4.0,-9.9,76,30.13,10.0,Calm,Calm,-,N/A,,Clear,0,2013-12-08 01:53:00
7:53 PM,-5.1,-11.0,76,30.14,10.0,SW,3.5,-,N/A,,Clear,230,2013-12-08 02:53:00
8:53 PM,-7.1,-13.0,75,30.13,10.0,Calm,Calm,-,N/A,,Clear,0,2013-12-08 03:53:00
9:53 PM,-8.0,-11.9,83,30.13,10.0,Calm,Calm,-,N/A,,Scattered Clouds,0,2013-12-08 04:53:00
10:53 PM,-8.0,-11.9,83,30.09,9.0,Calm,Calm,-,N/A,,Mostly Cloudy,0,2013-12-08 05:53:00
11:53 PM,-9.9,-14.1,82,30.09,9.0,Calm,Calm,-,N/A,,Clear,0,2013-12-08 06:53:00